Jefferson, NC

10:53 AM EST on December 08, 2019 (GMT -0500)
Ashe County

Weather History for KGEV - October, 2019

Change the Weather History Date:

Friday, October 25, 2019

  Actual Average Record
Temperature  
Mean Temperature 48 °F -  
Max Temperature 59 °F 61 °F 75 °F (1975)
Min Temperature 38 °F 39 °F 25 °F (1993)
Degree Days  
Heating Degree Days 16    
Moisture  
Dew Point 44 °F    
Average Humidity 83    
Maximum Humidity 100    
Minimum Humidity 64    
Precipitation  
Precipitation 0.01 in - - ()
Sea Level Pressure  
Sea Level Pressure 30.30 in    
Wind  
Wind Speed 1 mph ()    
Max Wind Speed 4 mph    
Max Gust Speed -    
Visibility 9.8 miles    
Events Rain    
Averages and records for this station are not official NWS values.
T = Trace of Precipitation, MM = Missing Value Source: Averaged Metar Reports

Daily Weather History Graph

Daily Weather History Graph

Search for Another Location

Airport or City:

Astronomy

Oct. 25, 2019 Rise Set
Actual Time 7:41 AM EDT 6:37 PM EDT
Civil Twilight 7:15 AM EDT 7:03 PM EDT
Nautical Twilight 6:45 AM EDT 7:33 PM EDT
Astronomical Twilight 6:15 AM EDT 8:03 PM EDT
Moon 4:30 AM EDT (10/25) 5:31 PM EDT (10/25)
Length of Visible Light 11h 47m
Length of Day
10h 55m
Waning Crescent, 9% of the Moon is Illuminated
Oct 25
Waning Crescent
Oct 27
New
Nov 4
First Quarter
Nov 12
Full
Nov 19
Last Quarter

Hourly Weather History & Observations

Time (EDT) Temp. Windchill Dew Point Humidity Pressure Visibility Wind Dir Wind Speed Gust Speed Precip Events Conditions
12:35 AM 41.4 °F 39.4 °F 36.7 °F 83% 30.32 in 10.0 mi SSW 3.5 mph - N/A   Clear
12:55 AM 42.3 °F 40.5 °F 36.7 °F 81% 30.32 in 10.0 mi SSW 3.5 mph - N/A   Clear
1:15 AM 44.1 °F 42.5 °F 36.7 °F 75% 30.32 in 10.0 mi SSW 3.5 mph - N/A   Clear
1:35 AM 40.5 °F - 37.2 °F 88% 30.32 in 10.0 mi Calm Calm - N/A   Clear
2:15 AM 42.1 °F - 36.5 °F 81% 30.32 in 10.0 mi Calm Calm - N/A   Clear
2:35 AM 40.1 °F - 36.5 °F 87% 30.31 in 10.0 mi Calm Calm - N/A   Clear
2:55 AM 40.5 °F 38.4 °F 36.5 °F 86% 30.31 in 10.0 mi South 3.5 mph - N/A   Clear
3:35 AM 38.5 °F - 36.7 °F 93% 30.30 in 10.0 mi Calm Calm - N/A   Clear
3:55 AM 39.7 °F - 36.9 °F 89% 30.31 in 10.0 mi Calm Calm - N/A   Clear
4:15 AM 39.9 °F - 36.7 °F 88% 30.31 in 10.0 mi Calm Calm - N/A   Clear
4:35 AM 41.0 °F - 36.7 °F 85% 30.31 in 10.0 mi Calm Calm - N/A   Clear
4:55 AM 42.1 °F - 36.9 °F 82% 30.31 in 10.0 mi Calm Calm - N/A   Clear
5:15 AM 43.0 °F - 37.2 °F 80% 30.31 in 10.0 mi Calm Calm - N/A   Clear
5:35 AM 40.5 °F - 37.4 °F 89% 30.31 in 10.0 mi Calm Calm - N/A   Clear
5:55 AM 41.2 °F - 37.4 °F 86% 30.32 in 10.0 mi Calm Calm - N/A   Clear
6:15 AM 40.3 °F - 37.4 °F 89% 30.32 in 10.0 mi Calm Calm - N/A   Clear
6:35 AM 41.9 °F - 36.9 °F 82% 30.32 in 10.0 mi Calm Calm - N/A   Clear
6:55 AM 39.9 °F - 37.2 °F 90% 30.31 in 10.0 mi Calm Calm - N/A   Clear
7:15 AM 41.2 °F - 37.6 °F 87% 30.31 in 10.0 mi Calm Calm - N/A   Clear
7:35 AM 42.8 °F - 37.8 °F 82% 30.31 in 10.0 mi Calm Calm - N/A   Clear
7:55 AM 42.6 °F - 38.3 °F 85% 30.32 in 10.0 mi Calm Calm - N/A   Clear
8:15 AM 42.3 °F - 38.5 °F 86% 30.33 in 10.0 mi Calm Calm - N/A   Clear
8:35 AM 41.0 °F - 39.7 °F 95% 30.33 in 10.0 mi Calm Calm - N/A   Clear
8:55 AM 41.2 °F - 39.4 °F 93% 30.35 in 10.0 mi Calm Calm - N/A   Clear
9:15 AM 42.6 °F - 40.1 °F 91% 30.35 in 10.0 mi Calm Calm - N/A   Clear
9:35 AM 45.7 °F - 39.9 °F 80% 30.35 in 10.0 mi Calm Calm - N/A   Clear
9:55 AM 46.6 °F - 42.1 °F 84% 30.35 in 10.0 mi Calm Calm - N/A   Clear
10:15 AM 48.7 °F - 42.4 °F 79% 30.35 in 10.0 mi Calm Calm - N/A   Clear
10:35 AM 50.0 °F - 44.1 °F 80% 30.33 in 10.0 mi Calm Calm - N/A   Clear
10:55 AM 52.7 °F - 45.0 °F 75% 30.33 in 10.0 mi Calm Calm - N/A   Clear
11:15 AM 52.3 °F - 45.1 °F 76% 30.33 in 10.0 mi Calm Calm - N/A   Clear
11:55 AM 54.1 °F - 44.1 °F 69% 30.33 in 10.0 mi Calm Calm - N/A   Clear
1:15 PM 56.8 °F - 46.0 °F 67% 30.30 in 10.0 mi Calm Calm - N/A   Overcast
1:35 PM 57.4 °F - 45.7 °F 65% 30.29 in 10.0 mi Calm Calm - N/A   Overcast
1:55 PM 59.5 °F - 47.5 °F 64% 30.27 in 10.0 mi Calm Calm - N/A   Mostly Cloudy
2:35 PM 58.6 °F - 46.8 °F 65% 30.26 in 10.0 mi Calm Calm - N/A   Scattered Clouds
2:55 PM 59.4 °F - 47.8 °F 66% 30.26 in 10.0 mi Calm Calm - N/A   Mostly Cloudy
3:35 PM 58.8 °F - 48.2 °F 68% 30.26 in 10.0 mi Calm Calm - N/A   Overcast
3:55 PM 59.9 °F - 48.2 °F 65% 30.26 in 10.0 mi Calm Calm - N/A   Mostly Cloudy
4:15 PM 59.0 °F - 47.3 °F 65% 30.25 in 10.0 mi Calm Calm - N/A   Scattered Clouds
4:35 PM 59.5 °F - 48.6 °F 67% 30.24 in 10.0 mi Calm Calm - N/A   Scattered Clouds
4:55 PM 59.2 °F - 48.0 °F 66% 30.24 in 10.0 mi Calm Calm - N/A   Mostly Cloudy
5:15 PM 59.0 °F - 49.1 °F 70% 30.24 in 10.0 mi Calm Calm - N/A   Overcast
5:35 PM 58.1 °F - 51.4 °F 78% 30.25 in 10.0 mi Calm Calm - N/A   Overcast
5:55 PM 57.0 °F - 51.8 °F 83% 30.25 in 10.0 mi Calm Calm - N/A   Mostly Cloudy
6:15 PM 55.8 °F - 50.4 °F 82% 30.25 in 10.0 mi Calm Calm - N/A   Mostly Cloudy
6:35 PM 55.0 °F - 50.4 °F 84% 30.26 in 10.0 mi Calm Calm - N/A   Overcast
6:55 PM 54.5 °F - 50.2 °F 85% 30.26 in 10.0 mi Calm Calm - N/A   Overcast
7:15 PM 54.0 °F - 49.8 °F 86% 30.27 in 10.0 mi Calm Calm - N/A   Overcast
7:35 PM 53.8 °F - 50.0 °F 87% 30.27 in 10.0 mi Calm Calm - N/A   Overcast
7:55 PM 53.8 °F - 50.2 °F 88% 30.27 in 10.0 mi Calm Calm - N/A   Overcast
8:15 PM 53.8 °F - 50.5 °F 89% 30.27 in 10.0 mi Calm Calm - N/A   Light Drizzle
8:35 PM 54.0 °F - 50.2 °F 87% 30.28 in 10.0 mi Calm Calm - N/A Rain Light Rain
8:55 PM 54.0 °F - 50.5 °F 88% 30.28 in 10.0 mi Calm Calm - N/A Rain Light Rain
9:15 PM 52.9 °F - 51.3 °F 94% 30.27 in 10.0 mi Calm Calm - N/A   Light Drizzle
9:35 PM 53.2 °F - 52.0 °F 95% 30.27 in 10.0 mi Calm Calm - N/A   Light Drizzle
9:55 PM 53.1 °F - 52.0 °F 96% 30.28 in 10.0 mi North 3.5 mph - N/A   Overcast
10:15 PM 53.8 °F - 52.5 °F 95% 30.28 in 10.0 mi Calm Calm - N/A   Overcast
10:35 PM 53.4 °F - 52.7 °F 97% 30.28 in 7.0 mi North 3.5 mph - N/A   Drizzle
10:55 PM 53.4 °F - 53.1 °F 99% 30.28 in 10.0 mi Calm Calm - N/A   Overcast
11:55 PM 52.9 °F - 52.9 °F 100% 30.28 in 3.0 mi Calm Calm - 0.01 in   Drizzle